Miscellaneous Local Product
Issued by NWS North Platte, NE

Home | Current Version | Previous Version | Text Only | Print | Product List | Glossary On
Versions: 1 2 3 4 5 6 7 8 9 10 11 12 13 14 15 16 17 18 19 20 21 22 23 24 25 26 27 28 29 30 31 32 33 34 35 36 37 38 39 40 41 42 43 44 45 46 47 48 49 50
000
AXUS43 KLBF 191110
MISLBF


WESTERN AND NORTH CENTRAL NEBRASKA HOURLY WEATHER ROUNDUP
NATIONAL WEATHER SERVICE NORTH PLATTE NE
500 AM CST FRI DEC 19 2014

***STATIONS NOT REPORTING VARIABLES SUCH AS SKY/WEATHER OR
PRESSURE ARE PROVIDED BY THE NEBRASKA DEPARTMENT OF
ROADS...RAWS...AND APRS NETWORKS...AND ARE NOT UNDER
NATIONAL WEATHER SERVICE QUALITY CONTROL***

...OBSERVATIONS IN AND NEAR THE EASTERN PANHANDLE OF NEBRASKA...

CITY           SKY/WX    TMP DP  RH WIND       PRES   REMARKS
PINE RIDGE     CLEAR     24  16  71 W3        30.02F
CHADRON        PTCLDY     9   6  88 SW6       30.04S WCI  -1
ALLIANCE       PTCLDY     4   1  88 SW8       30.03F WCI  -9
SIDNEY         CLEAR     18  13  80 W9        30.05F WCI   7
WHITECLAY        N/A     17  12  79 SE7         N/A  WCI   8
CRESCENT LAKE    N/A     18  15  87 W3          N/A
LISCO            N/A     11   6  80 W3          N/A
BIG SPRINGS      N/A     16  13  89 SW3         N/A
$$

...OBSERVATIONS IN NORTH CENTRAL NEBRASKA...

CITY           SKY/WX    TMP DP  RH WIND       PRES   REMARKS
VALENTINE      PTCLDY    12   9  87 SW6       30.04F WCI   3
THEDFORD       PTCLDY    14  12  92 CALM      30.05F
AINSWORTH      PTCLDY    13  11  92 S5        30.04F WCI   6
O`NEILL        CLOUDY    28  28 100 S10       30.09F FOG     WCI  18
BROKEN BOW     FOG       25  24  96 SW9       30.09S VSB 1/2 WCI  15
BROWNLEE         N/A     15  12  90 CALM        N/A
SPRINGVIEW       N/A      6   3  89 CALM        N/A
BREWSTER         N/A     15  13  95 CALM        N/A
ROSE             N/A     25  25 100 MISG        N/A
SARGENT          N/A     24  23  97 CALM        N/A
COMSTOCK         N/A     32  32 100 SW5         N/A  WCI  27
CHAMBERS         N/A     26  26  99 CALM        N/A
$$

...OBSERVATIONS IN SOUTHWEST NEBRASKA AND FAR NORTHEAST COLORADO...

CITY           SKY/WX    TMP DP  RH WIND       PRES   REMARKS
WRAY           FAIR      19  16  86 W3        30.09S
IMPERIAL       CLEAR     16  12  84 W5        30.08F FOG     WCI   9
OGALLALA       CLEAR     15  13  92 W7        30.07F WCI   6
NORTH PLATTE   PTCLDY    15  10  80 CALM      30.08F HAZE
MCCOOK         FOG       18  16  92 W3        30.11F VSB 1/4
LEXINGTON      FOG       27  27  97 SW6       30.11F VSB 3/4 WCI  21
PAXTON           N/A     17  15  90 W3          N/A
BRADY            N/A     20  18  92 CALM        N/A
GOTHENBURG       N/A     27  26  95 CALM        N/A
CALLAWAY         N/A     20  19  95 CALM        N/A
$$

...NORTH PLATTE AREA...

CITY           SKY/WX    TMP DP  RH WIND       PRES   REMARKS
AIRPORT        PTCLDY    15  10  80 CALM      30.08F HAZE
DOWNTOWN         N/A     15  13  91 CALM        N/A
$$

...SOME WEATHER OBSERVATIONS FROM AROUND THE REGION...

CITY           SKY/WX    TMP DP  RH WIND       PRES   REMARKS
DENVER         PTCLDY    24  22  91 SW7       30.05S FOG     WCI  16
LARAMIE        PTCLDY    18  10  71 SW13      30.04S WCI   5
CHEYENNE       CLEAR     24  12  60 SW10      30.03S WCI  14
SCOTTSBLUFF    CLEAR      4   1  88 N3        30.06R
RAPID CITY     PTCLDY    26  17  68 NW8       29.97F WCI  18
PIERRE         PTCLDY    15  12  88 S8        30.02F FOG     WCI   4
WINNER         FAIR      19  14  81 S7        30.03F WCI  10
SIOUX FALLS    CLOUDY    28  25  88 S8        30.14F WCI  20
OMAHA          CLOUDY    31  28  89 SE6       30.23F WCI  25
GRAND ISLAND   CLOUDY    30  27  88 SW8       30.15F WCI  22
KANSAS CITY    CLOUDY    30  29  96 NW3       30.24S FOG
WICHITA        CLOUDY    31  28  89 NE5       30.20F FOG     WCI  26
HAYS           CLOUDY    32  25  74 SE3       30.15F
LIBERAL        CLOUDY    36  32  87 CALM      30.14F
GOODLAND       CLEAR     25  21  85 W9        30.08F WCI  15
$$



USA.gov is the U.S. government's official web portal to all federal, state and local government web resources and services.